User: anonymous   Login
Location: ??
(34.9170°N, 135.5016°E)
Time: 03:36:23
(UTC+00:00)
Language:

Envisat - Orbit

View from above orbital plane
View from above orbital plane
View from above satellite
View from above satellite

Ground track
Ground track

The orbit data is extracted from the following two-line orbital elements,

1 27386U 02009A   21015.73950323  .00000018  00000-0  19400-4 0  9995
2 27386  98.1413  17.6606 0001207  86.2778  86.9507 14.38008790989122
Epoch (UTC): 15 January 2021 17:44:53
Eccentricity: 0.0001207
inclination: 98.1413°
perigee height: 764 km
apogee height: 766 km
right ascension of ascending node: 17.6606°
argument of perigee: 86.2778°
revolutions per day: 14.38008790
mean anomaly at epoch: 86.9507°
orbit number at epoch: 98912

The dashed part of the orbit path shows where the satellite is in the earth's shadow,  

DLR